Time,TemperatureF,DewpointF,PressureIn,WindDirection,WindDirectionDegrees,WindSpeedMPH,WindSpeedGustMPH,Humidity,HourlyPrecipIn,Conditions,Clouds,dailyrainin,SolarRadiationWatts/m^2,SoftwareType,DateUTC
2013-10-31 00:21:00,49.0,31.0,30.11,SE,132,8.0,16.0,50,0.00,,,0.00,0.000000,,2013-10-31 07:21:00,
2013-10-31 00:32:00,49.0,31.0,30.11,SE,132,8.0,16.0,50,0.00,,,0.00,0.000000,,2013-10-31 07:32:00,
2013-10-31 00:42:00,49.0,31.0,30.11,SE,132,8.0,16.0,50,0.00,,,0.00,0.000000,,2013-10-31 07:42:00,
2013-10-31 00:52:00,49.0,31.0,30.11,SE,132,8.0,16.0,50,0.00,,,0.00,0.000000,,2013-10-31 07:52:00,
2013-10-31 01:22:00,49.0,29.0,30.12,SSE,154,5.0,12.0,46,0.00,,,0.00,0.000000,,2013-10-31 08:22:00,
2013-10-31 01:32:00,49.0,29.0,30.12,SSE,154,5.0,12.0,46,0.00,,,0.00,0.000000,,2013-10-31 08:32:00,
2013-10-31 01:42:00,49.0,29.0,30.12,SSE,154,5.0,12.0,46,0.00,,,0.00,0.000000,,2013-10-31 08:42:00,
2013-10-31 01:52:00,49.0,29.0,30.12,SSE,154,5.0,12.0,46,0.00,,,0.00,0.000000,,2013-10-31 08:52:00,
2013-10-31 02:21:00,50.0,29.0,30.12,SE,146,5.0,9.0,44,0.00,,,0.00,0.000000,,2013-10-31 09:21:00,
2013-10-31 02:33:00,50.0,29.0,30.12,SE,146,5.0,9.0,44,0.00,,,0.00,0.000000,,2013-10-31 09:33:00,
2013-10-31 02:43:00,50.0,29.0,30.12,SE,146,5.0,9.0,44,0.00,,,0.00,0.000000,,2013-10-31 09:43:00,
2013-10-31 02:53:00,50.0,29.0,30.12,SE,146,5.0,9.0,44,0.00,,,0.00,0.000000,,2013-10-31 09:53:00,
2013-10-31 03:23:00,52.0,31.0,30.13,ESE,107,3.0,6.0,45,0.00,,,0.00,0.000000,,2013-10-31 10:23:00,
2013-10-31 03:33:00,52.0,31.0,30.13,ESE,107,3.0,6.0,45,0.00,,,0.00,0.000000,,2013-10-31 10:33:00,
2013-10-31 03:42:00,52.0,31.0,30.13,ESE,107,3.0,6.0,45,0.00,,,0.00,0.000000,,2013-10-31 10:42:00,
2013-10-31 03:53:00,52.0,31.0,30.13,ESE,107,3.0,6.0,45,0.00,,,0.00,0.000000,,2013-10-31 10:53:00,
2013-10-31 04:21:00,50.0,29.0,30.12,NNW,338,4.0,4.0,45,0.00,,,0.00,0.000000,,2013-10-31 11:21:00,
2013-10-31 04:33:00,50.0,29.0,30.12,NNW,338,4.0,4.0,45,0.00,,,0.00,0.000000,,2013-10-31 11:33:00,
2013-10-31 04:42:00,50.0,29.0,30.12,NNW,338,4.0,4.0,45,0.00,,,0.00,0.000000,,2013-10-31 11:42:00,
2013-10-31 04:52:00,50.0,29.0,30.12,NNW,338,4.0,4.0,45,0.00,,,0.00,0.000000,,2013-10-31 11:52:00,
2013-10-31 05:21:00,52.0,27.0,30.12,WNW,301,6.0,8.0,37,0.00,,,0.00,0.000000,,2013-10-31 12:21:00,
2013-10-31 05:32:00,52.0,27.0,30.12,WNW,301,6.0,8.0,37,0.00,,,0.00,0.000000,,2013-10-31 12:32:00,
2013-10-31 05:52:00,52.0,27.0,30.12,WNW,301,6.0,8.0,37,0.00,,,0.00,0.000000,,2013-10-31 12:52:00,
2013-10-31 06:22:00,47.0,25.0,30.11,North,353,17.0,17.0,42,-99.99,,,0.00,0.000000,,2013-10-31 13:22:00,
2013-10-31 06:32:00,47.0,25.0,30.11,North,353,17.0,17.0,42,-99.99,,,0.00,0.000000,,2013-10-31 13:32:00,
2013-10-31 06:42:00,47.0,25.0,30.11,North,353,17.0,17.0,42,-99.99,,,0.00,0.000000,,2013-10-31 13:42:00,
2013-10-31 06:52:00,47.0,25.0,30.11,North,353,17.0,17.0,42,-99.99,,,0.00,0.000000,,2013-10-31 13:52:00,
2013-10-31 07:21:00,51.0,20.0,30.12,NNE,18,9.0,25.0,29,0.00,,,0.00,0.000000,,2013-10-31 14:21:00,
2013-10-31 07:32:00,51.0,20.0,30.12,NNE,18,9.0,25.0,29,0.00,,,0.00,0.000000,,2013-10-31 14:32:00,
2013-10-31 07:42:00,51.0,20.0,30.12,NNE,18,9.0,25.0,29,0.00,,,0.00,0.000000,,2013-10-31 14:42:00,
2013-10-31 07:52:00,51.0,20.0,30.12,NNE,18,9.0,25.0,29,0.00,,,0.00,0.000000,,2013-10-31 14:52:00,
2013-10-31 12:21:00,64.0,24.0,30.17,NNW,343,4.0,8.0,22,-99.99,,,-99.99,782.000000,,2013-10-31 19:21:00,
2013-10-31 12:32:00,64.0,24.0,30.17,NNW,343,4.0,8.0,22,-99.99,,,-99.99,782.000000,,2013-10-31 19:32:00,
2013-10-31 12:42:00,64.0,24.0,30.17,NNW,343,4.0,8.0,22,-99.99,,,-99.99,782.000000,,2013-10-31 19:42:00,
2013-10-31 12:52:00,64.0,24.0,30.17,NNW,343,4.0,8.0,22,-99.99,,,-99.99,782.000000,,2013-10-31 19:52:00,
2013-10-31 14:21:00,67.0,25.0,30.14,North,3,5.0,9.0,20,-99.99,,,-99.99,848.000000,,2013-10-31 21:21:00,
2013-10-31 14:33:00,67.0,25.0,30.14,North,3,5.0,9.0,20,-99.99,,,-99.99,848.000000,,2013-10-31 21:33:00,
2013-10-31 14:43:00,67.0,25.0,30.14,North,3,5.0,9.0,20,-99.99,,,-99.99,848.000000,,2013-10-31 21:43:00,
2013-10-31 14:54:00,67.0,25.0,30.14,North,3,5.0,9.0,20,-99.99,,,-99.99,848.000000,,2013-10-31 21:54:00,
2013-10-31 15:24:00,64.0,23.0,30.13,NNW,347,10.0,14.0,21,0.00,,,-99.99,763.000000,,2013-10-31 22:24:00,
2013-10-31 15:33:00,64.0,23.0,30.13,NNW,347,10.0,14.0,21,0.00,,,-99.99,763.000000,,2013-10-31 22:33:00,
2013-10-31 15:43:00,64.0,23.0,30.13,NNW,347,10.0,14.0,21,0.00,,,-99.99,763.000000,,2013-10-31 22:43:00,
2013-10-31 15:53:00,64.0,23.0,30.13,NNW,347,10.0,14.0,21,0.00,,,-99.99,763.000000,,2013-10-31 22:53:00,
2013-10-31 16:22:00,64.0,22.0,30.12,North,355,10.0,16.0,20,0.00,,,-99.99,606.000000,,2013-10-31 23:22:00,
2013-10-31 16:34:00,64.0,22.0,30.12,North,355,10.0,16.0,20,0.00,,,-99.99,606.000000,,2013-10-31 23:34:00,
2013-10-31 16:43:00,64.0,22.0,30.12,North,355,10.0,16.0,20,0.00,,,-99.99,606.000000,,2013-10-31 23:43:00,
2013-10-31 16:53:00,64.0,22.0,30.12,North,355,10.0,16.0,20,0.00,,,-99.99,606.000000,,2013-10-31 23:53:00,
2013-10-31 17:21:00,62.0,20.0,30.12,North,355,14.0,23.0,20,0.00,,,-99.99,395.000000,,2013-11-01 00:21:00,
2013-10-31 17:32:00,62.0,20.0,30.12,North,355,14.0,23.0,20,0.00,,,-99.99,395.000000,,2013-11-01 00:32:00,
2013-10-31 17:42:00,62.0,20.0,30.12,North,355,14.0,23.0,20,0.00,,,-99.99,395.000000,,2013-11-01 00:42:00,
2013-10-31 17:52:00,62.0,20.0,30.12,North,355,14.0,23.0,20,0.00,,,-99.99,395.000000,,2013-11-01 00:52:00,
2013-10-31 18:22:00,58.0,17.0,30.12,NNW,344,18.0,26.0,20,0.00,,,-99.99,145.000000,,2013-11-01 01:22:00,
2013-10-31 18:32:00,58.0,17.0,30.12,NNW,344,18.0,26.0,20,0.00,,,-99.99,145.000000,,2013-11-01 01:32:00,
2013-10-31 18:42:00,58.0,17.0,30.12,NNW,344,18.0,26.0,20,0.00,,,-99.99,145.000000,,2013-11-01 01:42:00,
2013-10-31 18:52:00,58.0,17.0,30.12,NNW,344,18.0,26.0,20,0.00,,,-99.99,145.000000,,2013-11-01 01:52:00,
2013-10-31 19:22:00,56.0,17.0,30.11,North,351,17.0,30.0,21,0.00,,,-99.99,2.000000,,2013-11-01 02:22:00,
2013-10-31 19:32:00,56.0,17.0,30.11,North,351,17.0,30.0,21,0.00,,,-99.99,2.000000,,2013-11-01 02:32:00,
2013-10-31 19:42:00,56.0,17.0,30.11,North,351,17.0,30.0,21,0.00,,,-99.99,2.000000,,2013-11-01 02:42:00,
2013-10-31 19:52:00,56.0,17.0,30.11,North,351,17.0,30.0,21,0.00,,,-99.99,2.000000,,2013-11-01 02:52:00,
2013-10-31 20:22:00,57.0,16.0,30.13,North,8,9.0,32.0,20,0.00,,,-99.99,0.000000,,2013-11-01 03:22:00,
2013-10-31 20:33:00,57.0,16.0,30.13,North,8,9.0,32.0,20,0.00,,,-99.99,0.000000,,2013-11-01 03:33:00,
2013-10-31 20:44:00,57.0,16.0,30.13,North,8,9.0,32.0,20,0.00,,,-99.99,0.000000,,2013-11-01 03:44:00,
2013-10-31 20:54:00,57.0,16.0,30.13,North,8,9.0,32.0,20,0.00,,,-99.99,0.000000,,2013-11-01 03:54:00,
2013-10-31 21:24:00,55.0,14.0,30.14,North,356,13.0,24.0,19,0.00,,,-99.99,0.000000,,2013-11-01 04:24:00,
2013-10-31 21:34:00,55.0,14.0,30.14,North,356,13.0,24.0,19,0.00,,,-99.99,0.000000,,2013-11-01 04:34:00,
2013-10-31 21:43:00,55.0,14.0,30.14,North,356,13.0,24.0,19,0.00,,,-99.99,0.000000,,2013-11-01 04:43:00,
2013-10-31 21:54:00,55.0,14.0,30.14,North,356,13.0,24.0,19,0.00,,,-99.99,0.000000,,2013-11-01 04:54:00,
2013-10-31 22:23:00,55.0,15.0,30.14,North,353,15.0,20.0,20,0.00,,,-99.99,0.000000,,2013-11-01 05:23:00,
2013-10-31 22:33:00,55.0,15.0,30.14,North,353,15.0,20.0,20,0.00,,,-99.99,0.000000,,2013-11-01 05:33:00,
2013-10-31 22:42:00,55.0,15.0,30.14,North,353,15.0,20.0,20,0.00,,,-99.99,0.000000,,2013-11-01 05:42:00,
2013-10-31 22:53:00,55.0,15.0,30.14,North,353,15.0,20.0,20,0.00,,,-99.99,0.000000,,2013-11-01 05:53:00,
2013-10-31 23:21:00,56.0,12.0,30.16,North,359,12.0,21.0,17,0.00,,,-99.99,0.000000,,2013-11-01 06:21:00,
2013-10-31 23:32:00,56.0,12.0,30.16,North,359,12.0,21.0,17,0.00,,,-99.99,0.000000,,2013-11-01 06:32:00,
2013-10-31 23:42:00,56.0,12.0,30.16,North,359,12.0,21.0,17,0.00,,,-99.99,0.000000,,2013-11-01 06:42:00,
2013-10-31 23:52:00,56.0,12.0,30.16,North,359,12.0,21.0,17,0.00,,,-99.99,0.000000,,2013-11-01 06:52:00,